SKYNET 5C

Last updated on Tue Sep 22 2026 00:03:11 GMT+0000 (Coordinated Universal Time)

1 33055U 08030A 26264.34303669 -.00000141 00000+0 00000+0 0 9996 2 33055 4.0280 75.8284 0004928 113.5214 276.6032 1.00272732 66929
UTC large
Height (km)
Speed (km/s)
/
Latitude / Longitude
Inclination (degrees)
Orbital Period (minutes)
Azimuth
Elevation
Range (km)
Doppler Factor

Next 0 passes for location: London (51.5072 / 0.1276)

No passes found over London.
SKYNET 5C